This demonstration page uses our WeatherBlox Daily Observations layout. Learn more.

Hourly Observations for March 1, 2016

Temp ( °F °C ) Dew Point ( °F °C ) Humidity (%) Winds ( mph kmh ) Pressure ( in mb ) Visibility ( mi km ) Precip ( " mm )
12:15 am 00:15 Clear 39 4 32 0 75 75 Calm 30.09 1019 10 16.09344 0 0
12:35 am 00:35 Clear 39 4 32 0 75 75 Calm 30.09 1019 10 16.09344 0 0
12:55 am 00:55 Clear 41 5 32 0 70 70 Calm 30.09 1019 10 16.09344 0 0
1:15 am 01:15 Clear 37 3 32 0 81 81 Calm 30.09 1019 10 16.09344 0 0
1:35 am 01:35 Clear 36 2 32 0 87 87 Calm 30.09 1019 10 16.09344 0 0
1:55 am 01:55 Clear 37 3 32 0 81 81 Calm 30.09 1019 10 16.09344 0 0
2:15 am 02:15 Clear 37 3 32 0 81 81 Calm 30.09 1019 10 16.09344 0 0
2:35 am 02:35 Clear 36 2 32 0 87 87 Calm 30.09 1019 10 16.09344 0 0
2:55 am 02:55 Clear 34 1 32 0 93 93 SSW 3 6 30.12 1020 10 16.09344 0 0
3:15 am 03:15 Clear 36 2 30 -1 81 81 SSW 3 6 30.09 1019 10 16.09344 0 0
3:35 am 03:35 Clear 36 2 32 0 87 87 Calm 30.12 1020 10 16.09344 0 0
3:55 am 03:55 Clear 34 1 32 0 93 93 Calm 30.12 1020 10 16.09344 0 0
4:15 am 04:15 Clear 36 2 32 0 87 87 Calm 30.12 1020 10 16.09344 0 0
4:35 am 04:35 Clear 34 1 30 -1 87 87 Calm 30.12 1020 10 16.09344 0 0
4:55 am 04:55 Clear 36 2 32 0 87 87 Calm 30.12 1020 10 16.09344 0 0
5:15 am 05:15 Clear 36 2 30 -1 81 81 S 6 9 30.12 1020 10 16.09344 0 0
5:35 am 05:35 Clear 34 1 30 -1 87 87 Calm 30.12 1020 10 16.09344 0 0
5:55 am 05:55 Clear 32 0 32 0 100 100 Calm 30.12 1020 10 16.09344 0 0
6:15 am 06:15 Clear 34 1 32 0 93 93 Calm 30.12 1020 10 16.09344 0 0
6:35 am 06:35 Clear 34 1 32 0 93 93 Calm 30.12 1020 10 16.09344 0 0
6:55 am 06:55 Sunny 34 1 32 0 93 93 Calm 30.12 1020 10 16.09344 0 0
7:15 am 07:15 Sunny 34 1 32 0 93 93 Calm 30.12 1020 10 16.09344 0 0
7:35 am 07:35 Sunny 36 2 32 0 87 87 Calm 30.12 1020 10 16.09344 0 0
7:55 am 07:55 Sunny 39 4 32 0 75 75 Calm 30.12 1020 10 16.09344 0 0
8:15 am 08:15 Sunny 43 6 32 0 66 66 Calm 30.15 1021 10 16.09344 0 0
8:35 am 08:35 Sunny 46 8 32 0 57 57 Calm 30.15 1021 10 16.09344 0 0
8:55 am 08:55 Sunny 50 10 32 0 50 50 Calm 30.15 1021 10 16.09344 0 0
9:15 am 09:15 Sunny 52 11 32 0 47 47 S 3 6 30.12 1020 10 16.09344 0 0
9:35 am 09:35 Sunny 54 12 34 1 47 47 S 6 9 30.12 1020 10 16.09344 0 0
9:55 am 09:55 Sunny 57 14 34 1 41 41 S 13 20 30.09 1019 10 16.09344 0 0
10:15 am 10:15 Sunny 57 14 34 1 41 41 S 12 19 30.09 1019 10 16.09344 0 0
10:35 am 10:35 Sunny 59 15 34 1 39 39 S 15 24 30.09 1019 10 16.09344 0 0
10:55 am 10:55 Sunny 61 16 34 1 36 36 S 13 20 30.09 1019 10 16.09344 0 0
11:15 am 11:15 Sunny 63 17 32 0 32 32 S 18 30 30.06 1018 10 16.09344 0 0
11:35 am 11:35 Sunny 63 17 34 1 34 34 S 14 22 30.03 1017 10 16.09344 0 0
11:50 am 11:50 Sunny 64 18 34 1 32 32 SE 22 35 30.03 1017 10 16.09344 0 0
12:15 pm 12:15 Sunny 64 18 34 1 32 32 S 18 30 30 1016 10 16.09344 0 0
12:35 pm 12:35 Sunny 64 18 34 1 32 32 SSE 17 28 30 1016 10 16.09344 0 0
12:55 pm 12:55 Sunny 64 18 36 2 34 34 SSE 20 31 29.97 1015 10 16.09344 0 0
1:15 pm 13:15 Sunny 64 18 34 1 32 32 SSE 18 30 29.94 1014 10 16.09344 0 0
1:35 pm 13:35 Sunny 66 19 34 1 30 30 S 18 30 29.94 1014 10 16.09344 0 0
1:55 pm 13:55 Sunny 66 19 36 2 32 32 SSE 18 30 29.91 1013 10 16.09344 0 0
2:15 pm 14:15 Sunny 66 19 36 2 32 32 S 18 30 29.91 1013 10 16.09344 0 0
2:35 pm 14:35 Sunny 64 18 34 1 32 32 SSE 15 24 29.88 1012 10 16.09344 0 0
2:55 pm 14:55 Sunny 66 19 36 2 32 32 SSE 10 17 29.88 1012 10 16.09344 0 0
3:15 pm 15:15 Sunny 66 19 36 2 32 32 SSE 17 28 29.85 1011 10 16.09344 0 0
3:35 pm 15:35 Sunny 66 19 36 2 32 32 SSE 18 30 29.85 1011 10 16.09344 0 0
3:55 pm 15:55 Sunny 66 19 36 2 32 32 SSE 12 19 29.83 1010 10 16.09344 0 0
4:15 pm 16:15 Sunny 66 19 36 2 32 32 SSE 17 28 29.83 1010 10 16.09344 0 0
4:35 pm 16:35 Sunny 66 19 36 2 32 32 SSE 20 31 29.83 1010 10 16.09344 0 0
4:55 pm 16:55 Sunny 64 18 36 2 34 34 SE 12 19 29.8 1009 10 16.09344 0 0
5:15 pm 17:15 Sunny 64 18 36 2 34 34 SE 5 7 29.77 1008 10 16.09344 0 0
5:35 pm 17:35 Sunny 63 17 36 2 37 37 SSE 15 24 29.77 1008 10 16.09344 0 0
5:55 pm 17:55 Sunny 63 17 37 3 39 39 SSE 14 22 29.74 1007 10 16.09344 0 0
6:15 pm 18:15 Clear 61 16 36 2 39 39 SSE 12 19 29.74 1007 10 16.09344 0 0
6:35 pm 18:35 Clear 61 16 37 3 42 42 SE 13 20 29.74 1007 10 16.09344 0 0
6:55 pm 18:55 Clear 52 11 32 0 47 47 WNW 8 13 29.97 1015 10 16.09344 0 0
7:15 pm 19:15 Clear 59 15 41 5 51 51 SSE 14 22 29.71 1006 10 16.09344 0 0
7:35 pm 19:35 Clear 59 15 43 6 55 55 SSE 14 22 29.68 1005 10 16.09344 0 0
7:55 pm 19:55 Clear 59 15 45 7 59 59 SSE 12 19 29.68 1005 10 16.09344 0 0
8:10 pm 20:10 Clear 59 15 46 8 63 63 SSE 13 20 29.65 1004 10 16.09344 0 0
8:35 pm 20:35 Clear 59 15 46 8 63 63 SSE 12 19 29.65 1004 10 16.09344 0 0
8:55 pm 20:55 Clear 59 15 46 8 63 63 SSE 14 22 29.62 1003 10 16.09344 0 0
9:15 pm 21:15 Clear 59 15 46 8 63 63 SSE 16 26 29.59 1002 10 16.09344 0 0
9:35 pm 21:35 Partly Cloudy 59 15 46 8 63 63 S 13 20 29.59 1002 10 16.09344 0 0
9:55 pm 21:55 Partly Cloudy 59 15 46 8 63 63 S 16 26 29.59 1002 10 16.09344 0 0
10:15 pm 22:15 Mostly Cloudy 61 16 46 8 59 59 S 20 31 29.59 1002 10 16.09344 0 0
10:35 pm 22:35 Cloudy 61 16 46 8 59 59 S 14 22 29.56 1001 10 16.09344 0 0
10:55 pm 22:55 Cloudy 61 16 46 8 59 59 S 15 24 29.56 1001 10 16.09344 0 0
11:15 pm 23:15 Cloudy 61 16 46 8 59 59 S 14 22 29.53 1000 10 16.09344 0 0
11:35 pm 23:35 Mostly Cloudy 59 15 46 8 63 63 S 13 20 29.53 1000 10 16.09344 0 0
11:55 pm 23:55 Cloudy 61 16 50 10 68 68 SSW 17 28 29.53 1000 10 16.09344 0 0

Powered by AerisWeather